Regional Weather Roundup
Issued by NWS

Home | Current Version | Previous Version | Graphics & Text | Print | Product List | Glossary On
Versions: 1 2 3 4 5 6 7 8 9 10 11 12 13 14 15 16 17 18 19 20 21 22 23 24 25 26 27 28 29 30 31 32 33 34 35 36 37 38 39 40 41 42 43 44 45 46 47 48 49 50
000
ASUS43 KFSD 241602
RWRSD

WEATHER ROUNDUP FOR SOUTH DAKOTA
NATIONAL WEATHER SERVICE SIOUX FALLS SD
1000 AM CST FRI FEB 24 2017

NOTE: "FAIR" INDICATES FEW OR NO CLOUDS BELOW 12,000 FEET WITH NO
SIGNIFICANT WEATHER AND/OR OBSTRUCTIONS TO VISIBILITY.


SDZ001>005-009-010-012>017-241700-
NORTHWEST AND NORTH CENTRAL SOUTH DAKOTA

CITY           SKY/WX    TMP DP  RH WIND       PRES   REMARKS
BUFFALO          N/A     18  12  77 S7        30.02R WCI   9
FAITH            N/A     19  14  81 NW3       30.11R
MOBRIDGE       MOSUNNY   24  14  65 NW8       30.09S WCI  15
$$

SDZ012>016-024>037-041>051-057-063-072>074-241700-
SOUTHWEST AND SOUTH CENTRAL SOUTH DAKOTA

CITY           SKY/WX    TMP DP  RH WIND       PRES   REMARKS
RAPID CTY ARPT CLOUDY    18  13  80 N5        30.08R WCI  11
PIERRE         PTSUNNY   23  15  71 NW9       30.12R WCI  13
CUSTER         CLOUDY    16   9  74 NE3       29.91R
ELLSWORTH AFB  CLOUDY    18  14  86 E3        30.07
PHILIP         CLOUDY    23  12  62 NE8       30.13R WCI  14
PINE RIDGE     CLOUDY    20  17  88 NE7       30.05R WCI  11
SPEARFISH      FAIR      16  14  93 NE6       30.03R WCI   7
WINNER         FAIR      22  14  71 N14G22    30.08R WCI   9
$$

SDZ004>011-016>023-039-040-241700-
NORTHEAST SOUTH DAKOTA

CITY           SKY/WX    TMP DP  RH WIND       PRES   REMARKS
ABERDEEN       CLOUDY    24  13  62 N17G26    30.09R WCI  11
WATERTOWN      MOSUNNY   20  10  65 N26G33    29.98R WCI   2
BROOKINGS      CLOUDY    21  10  62 N24G33    29.94R WCI   4
SISSETON         N/A     22  13  68 N22       30.05S WCI   6
$$

SDZ017-020-022-023-036>040-048>070-241700-
SOUTHEAST SOUTH DAKOTA

CITY           SKY/WX    TMP DP  RH WIND       PRES   REMARKS
SIOUX FALLS    CLOUDY    21  14  74 N22G30    29.92S WCI   5
HURON          CLOUDY    23  14  68 N22       30.06R WCI   8
CHAMBERLAIN    MOSUNNY   25  16  70 N20G25    30.08R WCI  11
MITCHELL       CLOUDY    26  15  63 N24       30.03R WCI  11
YANKTON        CLOUDY    21  12  68 N24       29.95S WCI   4
$$

ABBREVIATIONS USED IN REMARKS
   TC - TEMPERATURE IN CELSIUS
  WCI - WIND CHILL INDEX
   HX - HEAT INDEX
  VSB - VISIBILITY





USA.gov is the U.S. government's official web portal to all federal, state and local government web resources and services.